SL-16 DEB, 22574

Orbit data source: Space-Track

SL-16 DEB, 22574 is space debris in LEO originally from a launch on Fri, 25 Dec 1992 UTC launched from the Tyuratam Missile And Space Complex (TTMTR). Debris objects in space refer to the collection of defunct objects orbiting the Earth. Examples of debris include non-operational satellites, rocket bodies, and fragments generated from explosions, collisions, or faulty payload assembly.

Loading next visibility...
Identifier
22574, 1992-093HW
Orbit
LEO
Country
Flag of CISCIS
Related business
Manufacturer
Unknown
Mission
Spacecraft
Bus & Motor
Unknown
Mass
Unknown
Launch date (UTC)
1992-12-25 (33 years ago)
Launch vehicle
Unknown
Launch site
Tyuratam Missile And Space Complex (TTMTR)
Object type
Payload
Rocket body
Debris
Shape & HBR
Unknown shape, 0.1 m
Radar Cross Section
Small (<0.1 m²)

Expand to show TLE details & history
Last TLE update: 2 days ago

TLE from 2 days ago
0 SL-16 DEB
1 22574U 92093HW  26125.94081669  .00001521  00000-0  74316-3 0  9995
2 22574  71.0857 304.7993 0125052 198.5127 313.6065 14.15517316695191
Epoch: 2026-05-05T22:34Z
TLE epoch observation values (Epoch: 2026-05-05T22:34:46.562Z)
Latitude
27.28321°
Longitude
-87.82767°
Altitude
781.71 km
Speed
7.498 km/s
True Right ascension
07h 38m 41s
True Declination
27° 08' 38"
Sunlit
Object was in daylight at epoch
Visualization orbit readout
Latitude
Unknown
Longitude
Unknown
Altitude
Unknown
Speed
Unknown
Apparent Right ascension
Unknown
Apparent Declination
Unknown
Sunlit
N/A
Visualization observer readout
Local Sidereal Time
19:08:50
Azimuth
Unknown
Elevation
Unknown
Doppler factor
Unknown
Orbital elements
Apogee altitude
928.713 km
Perigee altitude
748.223 km
Semi-major axis
7,216.605 km
Eccentricity
0.01251
Inclination
71.0857°
RAAN
304.7993°
Arg. of periapsis
198.5127°
True anomaly
312.55764°
Mean anomaly
313.6065°
Eccentric anomaly
313.0832°
Mean motion
3.54033 °/min
Orbital period
101.69 mins
BSTAR
0.00074316
Loading maneuver chart data...
Computing Atmospheric mass density...
Loading historical data...
Loading historical data...
Loading historical data...
Loading historical data...
Loading historical data...
Loading historical data...
Loading historical data...

Documentation

Showing up to 5 results
|